Starlink 34104

operational
NORAD ID: 64102 Int'l Des: 2025-110 Owner: SPXS Country: US Constellation: starlink
LEOCIRCULAR

Starlink 34104について

説明を読み込み中...

リアルタイム位置

3D地球を読み込み中...

次回通過

高度履歴

Altitude vs Time

uPlot chart will show altitude changes over time

軌道要素

1 64102U 25110G 25353.17492849 .00005455 00000-0 19625-3 0 9999
2 64102 53.1581 40.8729 0001586 94.6711 265.4471 15.30185254 33555
Epoch: Dec 19, 2025 • Age: 13 hours

現在のステータス

高度 479.7 km
速度 7.63 km/s
衛星直下点 48.17°N, 110.66°E
打ち上げ日 May 23, 2025
運用期間 0.5 years
タイプ internet

技術仕様

分類 Payload
質量 575.00 kg
乾燥質量 530.00 kg
総質量 575.00 kg
長さ 0.30 m
直径 4.10 m
スパン 29.00 m
形状 Box + pan
製造者 SPXS
バスタイプ Starlink V2MO
フェーズステータス In Orbit
所有者/国 SPXS/US

大規模コンステレーション

Loading constellations...